Weather History for KGEV - January, 2009

Change the Weather History Date:

Sunday, January 4, 2009

  Actual Average Record
Temperature  
Mean Temperature 50 °F -  
Max Temperature 62 °F 44 °F 66 °F (2004)
Min Temperature 37 °F 23 °F 5 °F (1979)
Degree Days  
Heating Degree Days 16    
Moisture  
Dew Point 43 °F    
Average Humidity 78    
Maximum Humidity 100    
Minimum Humidity 52    
Precipitation  
Precipitation 0.05 in - - ()
Sea Level Pressure  
Sea Level Pressure 30.09 in    
Wind  
Wind Speed 2 mph (West)    
Max Wind Speed 15 mph    
Max Gust Speed 23 mph    
Visibility 9 miles    
Events Rain    
Averages and records for this station are not official NWS values.
T = Trace of Precipitation, MM = Missing Value Source: NWS Daily Summary

Daily Weather History Graph

Daily Weather History Graph

Search for Another Location

Airport or City:

Trip Planner

Search our weather history database for the weather conditions in past years. The results will help you decide how hot, cold, wet, or windy it might be!

Date:

Astronomy

Jan. 04, 2009 Rise Set
Actual Time 7:37 AM EST 5:23 PM EST
Civil Twilight 7:09 AM EST 5:52 PM EST
Nautical Twilight 6:37 AM EST 6:24 PM EST
Astronomical Twilight 6:05 AM EST 6:55 PM EST
Moon 11:50 AM EST (1/4) 12:26 AM EST (1/4)
Length of Visible Light 10h 43m
Length of Day
9h 46m
First Quarter, 52% of the Moon is Illuminated
Jan 4
First Quarter
Jan 10
Full
Jan 17
Last Quarter
Jan 26
New
Feb 2
First Quarter

Hourly Weather History & Observations

Time (EST) Temp. Windchill Dew Point Humidity Pressure Visibility Wind Dir Wind Speed Gust Speed Precip Events Conditions
12:02 AM 42.8 °F - 35.6 °F 76% 30.08 in 10.0 mi Calm Calm - N/A   Overcast
12:22 AM 42.8 °F - 35.6 °F 76% 30.07 in 10.0 mi Calm Calm - N/A   Overcast
12:42 AM 42.8 °F - 35.6 °F 76% 30.07 in 10.0 mi Calm Calm - N/A   Mostly Cloudy
1:02 AM 42.8 °F - 35.6 °F 76% 30.07 in 10.0 mi Calm Calm - N/A   Overcast
1:22 AM 42.8 °F - 37.4 °F 81% 30.07 in 7.0 mi Calm Calm - N/A Rain Rain
1:42 AM 42.8 °F - 37.4 °F 81% 30.07 in 10.0 mi Calm Calm - 0.01 in Rain Light Rain
2:02 AM 41.0 °F - 37.4 °F 87% 30.07 in 10.0 mi Calm Calm - N/A   Mostly Cloudy
2:24 AM 41.0 °F 38.0 °F 37.4 °F 87% 30.07 in 10.0 mi WNW 4.6 mph - N/A   Mostly Cloudy
2:42 AM 42.8 °F - 37.4 °F 81% 30.07 in 10.0 mi Calm Calm - N/A   Mostly Cloudy
3:02 AM 41.0 °F - 37.4 °F 87% 30.07 in 7.0 mi Calm Calm - N/A   Scattered Clouds
3:24 AM 37.4 °F - 35.6 °F 93% 30.07 in 1.8 mi Calm Calm - N/A   Mist
3:42 AM 42.8 °F - 39.2 °F 87% 30.07 in 10.0 mi Calm Calm - N/A   Clear
4:02 AM 42.8 °F - 39.2 °F 87% 30.06 in 10.0 mi Calm Calm - N/A   Scattered Clouds
4:22 AM 41.0 °F - 39.2 °F 93% 30.05 in 10.0 mi Calm Calm - N/A   Scattered Clouds
4:42 AM 41.0 °F - 37.4 °F 87% 30.05 in 10.0 mi Calm Calm - N/A   Light Drizzle
5:02 AM 41.0 °F - 39.2 °F 93% 30.05 in 10.0 mi Calm Calm - N/A   Mostly Cloudy
5:22 AM 41.0 °F 39.0 °F 39.2 °F 93% 30.06 in 7.0 mi SSW 3.5 mph - N/A   Scattered Clouds
5:42 AM 41.0 °F - 39.2 °F 93% 30.07 in 10.0 mi Calm Calm - N/A   Clear
6:02 AM 42.8 °F 41.1 °F 39.2 °F 87% 30.07 in 10.0 mi SSW 3.5 mph - N/A   Scattered Clouds
6:42 AM 42.8 °F - 39.2 °F 87% 30.09 in 10.0 mi Calm Calm - N/A   Clear
7:02 AM 42.8 °F 41.1 °F 39.2 °F 87% 30.09 in 10.0 mi SSW 3.5 mph - N/A   Clear
7:22 AM 42.8 °F - 39.2 °F 87% 30.09 in 10.0 mi Calm Calm - N/A   Scattered Clouds
7:43 AM 42.8 °F - 37.4 °F 81% 30.10 in 10.0 mi Calm Calm - N/A   Overcast
8:02 AM 42.8 °F 38.0 °F 39.2 °F 87% 30.12 in 10.0 mi NW 8.1 mph - N/A Rain Light Rain
8:22 AM 46.4 °F 44.3 °F 44.6 °F 93% 30.13 in 7.0 mi West 4.6 mph - 0.01 in   Light Drizzle
8:42 AM 51.8 °F - 46.4 °F 82% 30.13 in 10.0 mi West 6.9 mph - 0.01 in   Light Drizzle
9:02 AM 51.8 °F - 46.4 °F 82% 30.13 in 10.0 mi West 9.2 mph - N/A   Drizzle
9:22 AM 46.4 °F - 42.8 °F 87% 30.13 in 10.0 mi Calm Calm - N/A   Drizzle
10:02 AM 42.8 °F - 42.8 °F 100% 30.13 in 3.0 mi Calm Calm - N/A Rain Light Rain
10:22 AM 44.6 °F 43.1 °F 44.6 °F 100% 30.14 in 4.0 mi SSE 3.5 mph - 0.03 in Rain Light Rain
10:42 AM 46.4 °F - 46.4 °F 100% 30.13 in 5.0 mi Calm Calm - 0.03 in   Light Drizzle
11:02 AM 48.2 °F - 46.4 °F 93% 30.13 in 4.0 mi Calm Calm - N/A   Mostly Cloudy
11:22 AM 51.8 °F - 50.0 °F 94% 30.13 in 10.0 mi Calm Calm - N/A   Scattered Clouds
11:42 AM 51.8 °F - 50.0 °F 94% 30.11 in 7.0 mi Calm Calm - N/A   Overcast
12:02 PM 51.8 °F - 50.0 °F 94% 30.10 in 10.0 mi Calm Calm - N/A   Scattered Clouds
12:22 PM 55.4 °F - 51.8 °F 88% 30.09 in 10.0 mi Calm Calm - N/A   Scattered Clouds
12:42 PM 55.4 °F - 51.8 °F 88% 30.09 in 10.0 mi Calm Calm - N/A   Mostly Cloudy
1:02 PM 57.2 °F - 51.8 °F 82% 30.09 in 10.0 mi Calm Calm - N/A   Scattered Clouds
1:22 PM 57.2 °F - 50.0 °F 77% 30.08 in 10.0 mi Calm Calm - N/A   Clear
1:42 PM 59.0 °F - 50.0 °F 72% 30.07 in 10.0 mi ESE 3.5 mph - N/A   Clear
2:02 PM 60.8 °F - 50.0 °F 68% 30.07 in 10.0 mi Calm Calm - N/A   Clear
2:22 PM 60.8 °F - 48.2 °F 63% 30.07 in 10.0 mi West 4.6 mph - N/A   Clear
2:42 PM 62.6 °F - 46.4 °F 55% 30.07 in 10.0 mi SW 3.5 mph - N/A   Clear
3:02 PM 62.6 °F - 44.6 °F 52% 30.07 in 10.0 mi West 9.2 mph 18.4 mph N/A   Clear
3:22 PM 62.6 °F - 44.6 °F 52% 30.08 in 10.0 mi West 11.5 mph - N/A   Clear
3:42 PM 62.6 °F - 44.6 °F 52% 30.08 in 10.0 mi West 11.5 mph 20.7 mph N/A   Clear
4:03 PM 60.8 °F - 44.6 °F 55% 30.09 in 10.0 mi West 15.0 mph 23.0 mph N/A   Clear
4:23 PM 60.8 °F - 44.6 °F 55% 30.09 in 10.0 mi West 11.5 mph 20.7 mph N/A   Clear
4:42 PM 60.8 °F - 44.6 °F 55% 30.09 in 10.0 mi West 11.5 mph - N/A   Clear
5:02 PM 59.0 °F - 44.6 °F 59% 30.10 in 10.0 mi West 10.4 mph 19.6 mph N/A   Clear
5:22 PM 57.2 °F - 44.6 °F 63% 30.11 in 10.0 mi WSW 6.9 mph - N/A   Clear
5:43 PM 57.2 °F - 46.4 °F 67% 30.11 in 10.0 mi West 6.9 mph - N/A   Clear
6:02 PM 57.2 °F - 46.4 °F 67% 30.11 in 10.0 mi West 9.2 mph - N/A   Clear
6:22 PM 57.2 °F - 46.4 °F 67% 30.11 in 10.0 mi West 8.1 mph - N/A   Clear
6:42 PM 55.4 °F - 46.4 °F 72% 30.11 in 10.0 mi West 5.8 mph - N/A   Clear
7:03 PM 55.4 °F - 44.6 °F 67% 30.12 in 10.0 mi WSW 4.6 mph - N/A   Clear
7:22 PM 55.4 °F - 44.6 °F 67% 30.11 in 10.0 mi West 4.6 mph - N/A   Clear
7:42 PM 55.4 °F - 42.8 °F 63% 30.12 in 10.0 mi West 4.6 mph - N/A   Clear
8:02 PM 55.4 °F - 42.8 °F 63% 30.12 in 10.0 mi West 9.2 mph - N/A   Clear
8:22 PM 55.4 °F - 44.6 °F 67% 30.12 in 10.0 mi West 9.2 mph - N/A   Clear
8:42 PM 55.4 °F - 46.4 °F 72% 30.12 in 10.0 mi West 11.5 mph 16.1 mph N/A   Clear
9:03 PM 55.4 °F - 46.4 °F 72% 30.11 in 10.0 mi WSW 8.1 mph - N/A   Clear
9:22 PM 55.4 °F - 48.2 °F 77% 30.11 in 10.0 mi West 8.1 mph - N/A   Clear
9:43 PM 55.4 °F - 48.2 °F 77% 30.11 in 10.0 mi West 4.6 mph - N/A   Clear
10:02 PM 55.4 °F - 48.2 °F 77% 30.11 in 10.0 mi West 12.7 mph 16.1 mph N/A   Scattered Clouds
10:22 PM 55.4 °F - 50.0 °F 82% 30.11 in 10.0 mi West 12.7 mph 18.4 mph N/A   Scattered Clouds
11:02 PM 55.4 °F - 50.0 °F 82% 30.11 in 10.0 mi West 10.4 mph - N/A   Mostly Cloudy
11:24 PM 55.4 °F - 50.0 °F 82% 30.10 in 10.0 mi West 18.4 mph 24.2 mph N/A   Mostly Cloudy
11:42 PM 55.4 °F - 50.0 °F 82% 30.10 in 10.0 mi West 11.5 mph 20.7 mph N/A   Scattered Clouds